When you browse on this site, cookies collect data to enhance your experience and personalize the content and advertising you see.
Visit our Privacy Policy to learn more. By continuing to use the site, you agree to this use of cookies and data.
  • In Sweden
  • List of Countries
  • For 7 days
  • Water Temperature
  • Weather Map
  • Weather Widgets
  • user-avatar
    Login

    Hourly Weather Bendery

    Today, 18 February, Tuesday

    Time Temperature Precipitation Wind Pressure Humidity
    00:00 +2°C° 0 mm 5 mps 756 mmHg 79%
    01:00 +2°C° 0 mm 5 mps 756 mmHg 79%
    02:00 +2°C° 0 mm 5 mps 755 mmHg 80%
    03:00 +1°C° 0 mm 5 mps 755 mmHg 80%
    04:00 +1°C° 0 mm 4 mps 755 mmHg 80%
    05:00 +1°C° 0 mm 4 mps 754 mmHg 80%
    06:00 +1°C° 0 mm 4 mps 754 mmHg 80%
    07:00 +1°C° 0 mm 5 mps 754 mmHg 80%
    08:00 +1°C° 0 mm 5 mps 754 mmHg 81%
    09:00 +3°C° 0 mm 5 mps 754 mmHg 72%
    10:00 +6°C° 0 mm 5 mps 754 mmHg 63%
    11:00 +8°C° 0 mm 6 mps 754 mmHg 54%
    12:00 +9°C° 0 mm 5 mps 754 mmHg 52%
    13:00 +11°C° 0 mm 4 mps 754 mmHg 50%
    14:00 +11°C° 0 mm 4 mps 754 mmHg 47%
    15:00 +11°C° 0 mm 4 mps 754 mmHg 51%
    16:00 +11°C° 0 mm 3 mps 754 mmHg 54%
    17:00 +10°C° 0 mm 3 mps 754 mmHg 57%
    18:00 +9°C° 0 mm 3 mps 754 mmHg 62%
    19:00 +9°C° 0 mm 3 mps 755 mmHg 67%
    20:00 +8°C° 0 mm 3 mps 755 mmHg 72%
    21:00 +8°C° 0 mm 3 mps 755 mmHg 76%
    22:00 +7°C° 0 mm 3 mps 755 mmHg 80%
    23:00 +7°C° 0 mm 3 mps 755 mmHg 85%

    Tomorrow, 19 February, Wednesday

    Time Temperature Precipitation Wind Pressure Humidity
    00:00 +5°C° 0 mm 3 mps 755 mmHg 86%
    01:00 +5°C° 0 mm 3 mps 756 mmHg 87%
    02:00 +4°C° 0 mm 3 mps 756 mmHg 89%
    03:00 +4°C° 0 mm 3 mps 756 mmHg 88%
    04:00 +4°C° 0 mm 3 mps 756 mmHg 88%
    05:00 +4°C° 0 mm 3 mps 756 mmHg 88%
    06:00 +3°C° 0 mm 3 mps 756 mmHg 87%
    07:00 +3°C° 0 mm 3 mps 756 mmHg 86%
    08:00 +4°C° 0 mm 2 mps 756 mmHg 85%
    09:00 +5°C° 0 mm 3 mps 756 mmHg 75%
    10:00 +7°C° 0 mm 3 mps 756 mmHg 65%
    11:00 +9°C° 0 mm 3 mps 756 mmHg 55%
    12:00 +9°C° 0 mm 3 mps 755 mmHg 52%
    13:00 +10°C° 0 mm 2 mps 755 mmHg 48%
    14:00 +10°C° 0 mm 2 mps 754 mmHg 45%
    15:00 +10°C° 0 mm 2 mps 754 mmHg 46%
    16:00 +11°C° 0 mm 1 mps 754 mmHg 48%
    17:00 +10°C° 0 mm 1 mps 753 mmHg 50%
    18:00 +10°C° 0 mm 1 mps 753 mmHg 52%
    19:00 +9°C° 0 mm 1 mps 753 mmHg 55%
    20:00 +8°C° 0 mm 1 mps 753 mmHg 58%
    21:00 +8°C° 0 mm 1 mps 753 mmHg 60%
    22:00 +7°C° 0 mm 1 mps 753 mmHg 61%
    23:00 +7°C° 0 mm 1 mps 753 mmHg 63%

    Day after tomorrow, 20 February, Thursday

    Time Temperature Precipitation Wind Pressure Humidity
    00:00 +7°C° 0 mm 1 mps 752 mmHg 65%
    01:00 +6°C° 0 mm 1 mps 752 mmHg 67%
    02:00 +6°C° 0 mm 1 mps 752 mmHg 69%
    03:00 +6°C° 0 mm 1 mps 752 mmHg 70%
    04:00 +5°C° 0 mm 1 mps 752 mmHg 72%
    05:00 +5°C° 0 mm 1 mps 752 mmHg 73%
    06:00 +5°C° 0 mm 1 mps 752 mmHg 73%
    07:00 +5°C° 0 mm 1 mps 752 mmHg 73%
    08:00 +5°C° 0 mm 1 mps 752 mmHg 73%
    09:00 +6°C° 0 mm 1 mps 752 mmHg 69%
    10:00 +7°C° 0 mm 1 mps 753 mmHg 65%
    11:00 +8°C° 0 mm 1 mps 753 mmHg 61%
    12:00 +9°C° 0 mm 1 mps 753 mmHg 58%
    13:00 +9°C° 0 mm 2 mps 753 mmHg 56%
    14:00 +9°C° 0 mm 2 mps 753 mmHg 53%
    15:00 +9°C° 0.1 mm 2 mps 753 mmHg 55%
    16:00 +9°C° 0.1 mm 2 mps 753 mmHg 56%
    17:00 +8°C° 0.1 mm 3 mps 753 mmHg 58%
    18:00 +8°C° 0.1 mm 3 mps 754 mmHg 63%
    19:00 +7°C° 0.1 mm 3 mps 754 mmHg 67%
    20:00 +5°C° 0.1 mm 3 mps 755 mmHg 72%
    21:00 +6°C° 0 mm 2 mps 755 mmHg 74%
    22:00 +5°C° 0 mm 2 mps 756 mmHg 76%
    23:00 +5°C° 0 mm 2 mps 756 mmHg 77%

    21 February, Friday

    Time Temperature Precipitation Wind Pressure Humidity
    00:00 +4°C° 0 mm 2 mps 756 mmHg 80%
    01:00 +4°C° 0 mm 2 mps 756 mmHg 83%
    02:00 +3°C° 0 mm 2 mps 757 mmHg 86%
    03:00 +3°C° 0 mm 2 mps 757 mmHg 87%
    04:00 +2°C° 0 mm 3 mps 757 mmHg 88%
    05:00 +2°C° 0 mm 3 mps 757 mmHg 89%
    06:00 +2°C° 0 mm 3 mps 758 mmHg 89%
    07:00 +3°C° 0 mm 2 mps 758 mmHg 89%
    08:00 +3°C° 0 mm 2 mps 758 mmHg 89%
    15:00 +8°C° 0 mm 1 mps 757 mmHg 57%
    16:00 +8°C° 0 mm 1 mps 757 mmHg 56%
    17:00 +7°C° 0 mm 0 mps 757 mmHg 55%
    18:00 +7°C° 0 mm 1 mps 757 mmHg 59%
    19:00 +6°C° 0 mm 1 mps 757 mmHg 63%
    20:00 +5°C° 0 mm 2 mps 757 mmHg 66%
    21:00 +4°C° 0 mm 2 mps 757 mmHg 68%
    22:00 +4°C° 0 mm 2 mps 757 mmHg 70%
    23:00 +4°C° 0 mm 2 mps 757 mmHg 72%

    22 February, Saturday

    Time Temperature Precipitation Wind Pressure Humidity
    00:00 +3°C° 0 mm 2 mps 757 mmHg 74%
    01:00 +3°C° 0 mm 2 mps 757 mmHg 76%
    02:00 +2°C° 0 mm 3 mps 757 mmHg 78%
    03:00 +2°C° 0 mm 3 mps 757 mmHg 81%
    04:00 +1°C° 0 mm 4 mps 757 mmHg 84%
    05:00 +1°C° 0 mm 4 mps 757 mmHg 87%
    06:00 +1°C° 0 mm 5 mps 757 mmHg 87%
    07:00 +1°C° 0 mm 6 mps 758 mmHg 87%
    08:00 +1°C° 0 mm 6 mps 758 mmHg 87%
    09:00 +1°C° 0 mm 6 mps 759 mmHg 80%
    10:00 +2°C° 0 mm 6 mps 759 mmHg 74%
    11:00 +3°C° 0 mm 6 mps 760 mmHg 68%
    12:00 +3°C° 0 mm 6 mps 760 mmHg 65%
    13:00 +3°C° 0 mm 6 mps 760 mmHg 62%
    14:00 +3°C° 0 mm 6 mps 760 mmHg 60%
    15:00 +3°C° 0 mm 5 mps 760 mmHg 60%
    16:00 +3°C° 0 mm 5 mps 760 mmHg 60%
    17:00 +4°C° 0 mm 4 mps 760 mmHg 60%
    18:00 +3°C° 0 mm 3 mps 760 mmHg 64%
    19:00 +3°C° 0 mm 2 mps 760 mmHg 67%
    20:00 +4°C° 0 mm 1 mps 760 mmHg 70%
    21:00 +2°C° 0 mm 2 mps 760 mmHg 72%
    22:00 +2°C° 0 mm 2 mps 760 mmHg 73%
    23:00 +1°C° 0 mm 3 mps 760 mmHg 75%

    23 February, Sunday

    Time Temperature Precipitation Wind Pressure Humidity
    00:00 +1°C° 0 mm 3 mps 759 mmHg 75%
    01:00 0°C° 0 mm 3 mps 759 mmHg 76%
    02:00 0°C° 0 mm 3 mps 759 mmHg 76%
    03:00 -1°C° 0 mm 4 mps 758 mmHg 76%
    04:00 0°C° 0 mm 4 mps 757 mmHg 75%
    05:00 0°C° 0 mm 5 mps 757 mmHg 74%
    06:00 0°C° 0 mm 4 mps 757 mmHg 72%
    07:00 0°C° 0 mm 4 mps 756 mmHg 69%
    08:00 +1°C° 0 mm 4 mps 756 mmHg 67%
    09:00 +3°C° 0 mm 4 mps 756 mmHg 65%
    10:00 +2°C° 0 mm 5 mps 755 mmHg 63%
    11:00 +3°C° 0 mm 5 mps 755 mmHg 62%
    12:00 +5°C° 0 mm 5 mps 754 mmHg 59%
    13:00 +6°C° 0 mm 5 mps 754 mmHg 56%
    14:00 +8°C° 0 mm 6 mps 753 mmHg 53%
    15:00 +8°C° 0 mm 5 mps 753 mmHg 53%
    16:00 +9°C° 0 mm 5 mps 753 mmHg 54%
    17:00 +10°C° 0 mm 4 mps 752 mmHg 55%
    18:00 +9°C° 0 mm 5 mps 752 mmHg 56%
    19:00 +9°C° 0 mm 5 mps 752 mmHg 58%
    20:00 +8°C° 0 mm 6 mps 752 mmHg 59%
    21:00 +8°C° 0 mm 6 mps 752 mmHg 61%
    22:00 +8°C° 0 mm 6 mps 752 mmHg 62%
    23:00 +6°C° 0 mm 7 mps 752 mmHg 63%
    Show more